User: anonymous   Login
Location: Asheville, NC
(35.6000°N, 82.5500°W)
Time: 08:25:43
(UTC-04:00)
Language:

YUBILEINY - Orbit

View from above orbital plane
View from above orbital plane
View from above satellite
View from above satellite

Ground track
Ground track

The orbit data is extracted from the following two-line orbital elements,

1 32953U 08025A   18114.19522124  .00000012  00000-0  18909-4 0  9992
2 32953  82.5063  46.2523 0018872 331.5004  28.5042 12.43083005450064
Epoch (UTC): 24 April 2018 04:41:07
Eccentricity: 0.0018872
inclination: 82.5063°
perigee height: 1479 km
apogee height: 1508 km
right ascension of ascending node: 46.2523°
argument of perigee: 331.5004°
revolutions per day: 12.43083005
mean anomaly at epoch: 28.5042°
orbit number at epoch: 45006

The dashed part of the orbit path shows where the satellite is in the earth's shadow,  

DLR